TimeCDT,TemperatureF,Dew PointF,Humidity,Sea Level PressureIn,VisibilityMPH,Wind Direction,Wind SpeedMPH,Gust SpeedMPH,PrecipitationIn,Events,Conditions,WindDirDegrees,DateUTC
12:15 AM,3.2,-2.2,78,30.10,10.0,Calm,Calm,-,N/A,,Clear,0,2013-03-23 05:15:00
12:35 AM,3.2,-0.4,85,30.10,10.0,Calm,Calm,-,N/A,,Clear,0,2013-03-23 05:35:00
12:55 AM,3.2,-2.2,78,30.10,10.0,Calm,Calm,-,N/A,,Clear,0,2013-03-23 05:55:00
1:15 AM,3.2,-2.2,78,30.10,10.0,Calm,Calm,-,N/A,,Clear,0,2013-03-23 06:15:00
1:35 AM,3.2,-0.4,85,30.09,10.0,Calm,Calm,-,N/A,,Clear,0,2013-03-23 06:35:00
1:55 AM,3.2,-2.2,78,30.09,10.0,Calm,Calm,-,N/A,,Clear,0,2013-03-23 06:55:00
2:15 AM,3.2,-0.4,85,30.10,10.0,South,3.5,-,N/A,,Clear,180,2013-03-23 07:15:00
2:35 AM,1.4,-2.2,85,30.10,10.0,Calm,Calm,-,N/A,,Clear,0,2013-03-23 07:35:00
2:55 AM,1.4,-2.2,85,30.10,10.0,Calm,Calm,-,N/A,,Clear,0,2013-03-23 07:55:00
3:15 AM,1.4,-2.2,85,30.10,10.0,Calm,Calm,-,N/A,,Clear,0,2013-03-23 08:15:00
3:35 AM,1.4,-2.2,85,30.10,10.0,Calm,Calm,-,N/A,,Scattered Clouds,0,2013-03-23 08:35:00
3:55 AM,-0.4,-2.2,92,30.10,10.0,Calm,Calm,-,N/A,,Overcast,0,2013-03-23 08:55:00
4:15 AM,3.2,-0.4,85,30.11,10.0,Calm,Calm,-,N/A,,Overcast,0,2013-03-23 09:15:00
4:35 AM,3.2,1.4,92,30.11,10.0,Calm,Calm,-,N/A,,Overcast,0,2013-03-23 09:35:00
4:55 AM,3.2,-0.4,85,30.10,10.0,Calm,Calm,-,N/A,,Overcast,0,2013-03-23 09:55:00
5:15 AM,3.2,-0.4,85,30.11,10.0,Calm,Calm,-,N/A,,Mostly Cloudy,0,2013-03-23 10:15:00
5:35 AM,5.0,-0.4,78,30.12,10.0,Calm,Calm,-,N/A,,Overcast,0,2013-03-23 10:35:00
5:55 AM,6.8,1.4,79,30.11,10.0,Calm,Calm,-,N/A,,Overcast,0,2013-03-23 10:55:00
6:15 AM,6.8,3.2,85,30.11,10.0,Calm,Calm,-,N/A,,Overcast,0,2013-03-23 11:15:00
6:35 AM,6.8,3.2,85,30.12,10.0,Calm,Calm,-,N/A,,Mostly Cloudy,0,2013-03-23 11:35:00
6:55 AM,6.8,3.2,85,30.12,10.0,Calm,Calm,-,N/A,,Scattered Clouds,0,2013-03-23 11:55:00
7:15 AM,6.8,3.2,85,30.12,10.0,Calm,Calm,-,N/A,,Scattered Clouds,0,2013-03-23 12:15:00
7:35 AM,6.8,1.4,79,30.13,10.0,Calm,Calm,-,N/A,,Clear,0,2013-03-23 12:35:00
8:15 AM,6.8,3.2,85,30.13,10.0,Calm,Calm,-,N/A,,Scattered Clouds,0,2013-03-23 13:15:00
8:35 AM,8.6,5.0,85,30.13,10.0,Calm,Calm,-,N/A,,Clear,0,2013-03-23 13:35:00
8:55 AM,12.2,8.6,85,30.13,10.0,Calm,Calm,-,N/A,,Clear,0,2013-03-23 13:55:00
9:15 AM,12.2,6.8,79,30.14,10.0,Calm,Calm,-,N/A,,Scattered Clouds,0,2013-03-23 14:15:00
9:35 AM,15.8,6.8,68,30.14,10.0,Calm,Calm,-,N/A,,Overcast,0,2013-03-23 14:35:00
9:55 AM,15.8,6.8,68,30.15,10.0,Calm,Calm,-,N/A,,Overcast,0,2013-03-23 14:55:00
10:15 AM,15.8,6.8,68,30.15,10.0,Calm,Calm,-,N/A,,Overcast,0,2013-03-23 15:15:00
10:35 AM,15.8,6.8,68,30.15,10.0,Calm,Calm,-,N/A,,Overcast,0,2013-03-23 15:35:00
10:55 AM,17.6,8.6,68,30.15,10.0,Calm,Calm,-,N/A,,Overcast,0,2013-03-23 15:55:00
11:15 AM,19.4,8.6,63,30.15,10.0,Calm,Calm,-,N/A,,Overcast,0,2013-03-23 16:15:00
11:35 AM,21.2,10.4,63,30.15,10.0,Calm,Calm,-,N/A,,Scattered Clouds,0,2013-03-23 16:35:00
11:55 AM,24.8,10.4,54,30.15,10.0,Calm,Calm,-,N/A,,Clear,0,2013-03-23 16:55:00
12:15 PM,24.8,12.2,59,30.15,10.0,Calm,Calm,-,N/A,,Clear,0,2013-03-23 17:15:00
12:35 PM,26.6,12.2,55,30.15,10.0,Calm,Calm,-,N/A,,Clear,0,2013-03-23 17:35:00
12:55 PM,30.2,12.2,47,30.15,10.0,Calm,Calm,-,N/A,,Clear,0,2013-03-23 17:55:00
1:15 PM,30.2,14.0,51,30.14,10.0,Calm,Calm,-,N/A,,Clear,0,2013-03-23 18:15:00
1:35 PM,30.2,14.0,51,30.14,10.0,Calm,Calm,-,N/A,,Clear,0,2013-03-23 18:35:00
1:56 PM,33.8,14.0,44,30.13,10.0,Calm,Calm,-,N/A,,Clear,0,2013-03-23 18:56:00
2:15 PM,33.8,15.8,48,30.13,10.0,Calm,Calm,-,N/A,,Clear,0,2013-03-23 19:15:00
2:35 PM,33.8,17.6,52,30.13,10.0,NW,4.6,-,N/A,,Clear,320,2013-03-23 19:35:00
2:56 PM,33.8,17.6,52,30.12,10.0,NNW,6.9,-,N/A,,Clear,330,2013-03-23 19:56:00
3:15 PM,33.8,17.6,52,30.12,10.0,Calm,Calm,-,N/A,,Clear,0,2013-03-23 20:15:00
3:35 PM,33.8,17.6,52,30.12,10.0,NW,3.5,-,N/A,,Clear,320,2013-03-23 20:35:00
3:56 PM,35.6,17.6,48,30.12,10.0,Calm,Calm,-,N/A,,Clear,0,2013-03-23 20:56:00
4:15 PM,33.8,17.6,52,30.12,10.0,NNW,5.8,-,N/A,,Clear,330,2013-03-23 21:15:00
4:35 PM,33.8,17.6,52,30.12,10.0,NNW,4.6,-,N/A,,Clear,330,2013-03-23 21:35:00
4:56 PM,33.8,17.6,52,30.12,10.0,NW,8.1,-,N/A,,Clear,320,2013-03-23 21:56:00
5:15 PM,30.2,17.6,60,30.12,10.0,WNW,8.1,-,N/A,,Clear,300,2013-03-23 22:15:00
5:35 PM,30.2,17.6,60,30.12,10.0,WNW,9.2,-,N/A,,Clear,300,2013-03-23 22:35:00
5:56 PM,28.4,17.6,64,30.13,10.0,WNW,8.1,-,N/A,,Clear,300,2013-03-23 22:56:00
6:15 PM,28.4,17.6,64,30.13,10.0,NW,6.9,-,N/A,,Clear,310,2013-03-23 23:15:00
6:35 PM,26.6,17.6,69,30.13,10.0,NW,9.2,-,N/A,,Clear,310,2013-03-23 23:35:00
6:56 PM,23.0,15.8,74,30.14,10.0,NW,9.2,-,N/A,,Clear,310,2013-03-23 23:56:00
7:15 PM,23.0,15.8,74,30.14,10.0,NW,6.9,-,N/A,,Clear,310,2013-03-24 00:15:00
7:35 PM,21.2,15.8,80,30.14,10.0,WNW,4.6,-,N/A,,Clear,300,2013-03-24 00:35:00
7:56 PM,19.4,14.0,80,30.15,10.0,NW,4.6,-,N/A,,Clear,320,2013-03-24 00:56:00
8:15 PM,19.4,14.0,80,30.15,10.0,Calm,Calm,-,N/A,,Mostly Cloudy,0,2013-03-24 01:15:00
8:35 PM,17.6,12.2,79,30.16,10.0,Calm,Calm,-,N/A,,Overcast,0,2013-03-24 01:35:00
8:54 PM,17.6,14.0,86,30.16,10.0,West,3.5,-,N/A,,Overcast,280,2013-03-24 01:54:00
9:15 PM,17.6,14.0,86,30.16,10.0,Calm,Calm,-,N/A,,Overcast,0,2013-03-24 02:15:00
9:35 PM,17.6,12.2,79,30.16,10.0,Calm,Calm,-,N/A,,Overcast,0,2013-03-24 02:35:00
9:55 PM,17.6,14.0,86,30.16,10.0,Calm,Calm,-,N/A,,Overcast,0,2013-03-24 02:55:00
10:15 PM,17.6,14.0,86,30.15,10.0,Calm,Calm,-,N/A,,Overcast,0,2013-03-24 03:15:00
10:35 PM,17.6,14.0,86,30.16,10.0,Calm,Calm,-,N/A,,Overcast,0,2013-03-24 03:35:00
10:55 PM,17.6,14.0,86,30.16,10.0,Calm,Calm,-,N/A,,Overcast,0,2013-03-24 03:55:00
11:15 PM,17.6,14.0,86,30.16,10.0,Calm,Calm,-,N/A,,Overcast,0,2013-03-24 04:15:00
11:35 PM,17.6,14.0,86,30.16,10.0,Calm,Calm,-,N/A,,Overcast,0,2013-03-24 04:35:00
11:55 PM,17.6,14.0,86,30.15,10.0,Calm,Calm,-,N/A,,Overcast,0,2013-03-24 04:55:00